Temperature
17 17 17 17 17 16 16 16 16 16 16 16 16 15 15 15 15 15 14 14 14 14 14 14 14 14 14 14 14 14 14 14 14 14 14 14 14 14 14 14 15 15 15
17 17 17 17 16 16 16 16 16 16 16 16 16 16 15 15 15 15 15 14 14 14 14 14 14 14 14 14 14 14 14 14 14 14 14 14 14 14 14 14 14 14 15
17 17 16 16 16 16 16 16 16 16 15 15 16 15 15 15 15 15 15 15 14 14 14 14 14 14 14 14 14 14 14 14 14 14 14 14 14 14 14 14 14 14 14
16 16 16 16 16 16 16 15 15 15 15 15 15 15 15 15 15 15 15 15 15 14 14 14 14 14 14 14 14 14 13 13 14 14 14 14 14 13 13 13 14 14 14
16 16 16 15 15 15 15 15 15 15 15 15 15 15 15 15 15 15 15 15 15 15 15 14 14 14 14 14 14 14 13 13 13 13 13 13 13 13 13 13 13 13 13
16 15 15 15 15 14 14 14 14 14 14 14 14 14 15 14 14 14 14 14 14 15 15 15 14 14 14 14 14 14 14 13 13 13 13 13 14 14 13 13 13 13 13
15 15 15 14 14 14 14 14 14 14 14 14 14 14 14 14 14 14 14 14 14 14 14 14 14 14 14 14 14 14 14 13 13 13 13 13 13 13 13 13 13 13 13
15 14 14 14 14 13 13 13 13 13 13 13 14 14 14 14 14 14 14 14 14 14 14 14 14 14 14 14 14 14 14 14 13 13 13 13 13 13 13 13 13 13 13
14 13 13 13 13 13 13 13 13 13 13 13 13 13 13 13 13 13 13 13 13 14 14 14 14 14 14 14 14 14 14 14 13 13 13 13 13 13 13 13 13 12 12
13 13 13 12 12 12 12 12 12 12 12 12 12 13 13 13 13 13 13 13 13 13 13 13 13 13 13 14 14 14 14 14 13 13 13 13 13 13 13 13 13 12 12
12 12 12 12 12 12 12 12 12 12 12 12 12 12 12 12 12 12 12 12 12 12 13 13 13 13 13 13 13 13 14 13 13 13 13 13 13 13 13 13 13 12 12
12 12 12 11 11 11 11 11 11 11 11 11 11 11 12 12 12 12 12 12 12 12 12 12 12 12 13 13 13 13 13 13 13 13 13 13 13 13 13 13 12 12 12
11 11 11 11 11 11 11 11 10 10 10 10 10 10 11 11 11 11 11 11 11 11 11 11 12 12 12 12 13 13 13 13 13 13 13 13 13 13 12 12 12 12 12
11 11 10 10 10 10 10 10 10 10 10 9 9 9 10 10 10 10 10 10 10 10 10 11 11 11 11 12 12 12 12 12 12 12 12 12 12 12 12 12 12 12 11
10 10 10 10 10 10 9 9 9 9 9 9 9 9 9 9 9 9 9 9 9 10 10 10 10 10 11 11 11 12 12 12 12 12 12 12 12 12 12 12 12 11 11
10 10 9 9 9 9 9 9 9 9 9 8 8 8 8 9 9 9 9 9 9 9 9 9 9 10 10 10 11 11 12 11 12 12 12 12 12 12 12 11 11 11 11
9 9 9 9 9 8 8 8 8 8 8 8 8 8 8 8 8 8 8 8 8 8 8 8 9 9 9 10 10 10 11 11 11 11 11 11 11 11 11 11 11 11 10
9 9 8 8 8 8 8 8 8 8 7 7 7 7 7 7 7 7 7 8 8 8 8 8 8 8 8 9 9 10 10 10 10 11 11 11 11 11 11 11 11 10 10
9 8 8 8 8 8 7 7 7 7 7 7 7 7 7 7 7 7 7 7 7 7 7 7 7 7 8 8 9 9 9 10 10 10 11 11 11 11 11 11 10 10 10
8 8 8 8 7 7 7 7 7 7 7 7 6 6 6 6 6 6 6 6 6 6 6 6 7 7 7 8 8 8 9 9 9 10 10 10 10 11 11 10 10 10 10
8 8 7 7 7 7 7 7 7 7 6 6 6 6 6 6 6 5 5 5 5 6 6 6 6 6 7 7 7 8 8 8 9 9 10 10 10 10 10 10 10 10 9
8 7 7 7 7 7 7 6 6 6 6 6 6 6 5 5 5 5 5 5 5 5 5 5 5 6 6 6 7 7 8 8 8 9 9 10 10 10 10 10 10 9 9
7 7 6 6 6 6 6 6 6 6 6 6 5 5 5 5 5 5 4 5 5 5 5 5 5 5 5 6 6 6 7 8 8 8 9 9 9 9 10 9 9 9 9
7 6 6 6 6 6 6 6 6 5 5 5 5 5 5 4 4 4 4 4 4 4 4 4 5 5 5 5 6 6 7 7 7 8 8 8 9 9 9 9 9 9 9
6 6 6 5 5 5 5 5 5 5 5 5 4 4 4 4 4 3 3 3 3 4 4 4 4 4 5 5 5 6 6 7 7 7 8 8 8 8 9 9 8 8 8
6 5 5 5 5 5 5 5 5 5 4 4 4 4 3 3 3 3 3 3 3 3 3 4 4 4 4 5 5 6 6 7 7 7 7 7 8 8 8 8 8 8 8
Wind_Speed
1 1 1 1 2 2 2 2 3 4 4 4 5 4 4 3 3 4 3 3 4 4 3 2 2 2 1 2 1 2 2 2 2 2 1 1 2 2 2 3 5 6 7
2 3 2 2 2 3 3 3 4 5 4 4 4 4 4 3 4 4 4 4 4 5 4 3 3 2 2 2 2 3 2 2 2 2 1 1 2 3 3 3 3 5 6
3 3 3 3 3 3 4 4 4 5 5 5 5 4 4 4 4 5 5 5 5 5 5 4 4 2 2 2 3 2 2 2 2 2 2 1 1 2 2 1 2 1 3
2 2 3 4 3 4 4 5 5 5 6 6 5 4 4 4 5 5 4 5 6 6 5 5 5 4 4 3 3 3 3 2 2 2 2 2 2 2 2 2 1 1 2
3 3 3 4 4 4 4 5 6 6 7 6 6 6 5 4 4 3 4 6 6 6 6 6 5 6 6 4 3 2 2 2 2 2 3 2 2 2 3 3 2 2 2
4 4 4 4 5 5 5 5 6 7 7 6 6 6 6 6 5 5 4 6 7 8 7 6 6 7 9 10 8 6 5 3 3 3 3 4 4 4 3 3 3 2 2
5 5 5 5 5 5 6 6 6 6 6 7 7 7 7 8 8 8 7 6 7 9 8 7 7 7 9 8 10 10 8 8 7 4 4 5 5 5 5 3 3 4 3
5 5 5 5 5 5 6 6 6 6 6 6 7 7 8 8 9 9 9 7 8 9 9 9 8 7 8 8 8 8 8 8 8 6 5 5 4 4 6 5 5 3 1
6 6 6 6 6 6 6 7 6 6 7 7 7 7 8 9 10 9 8 5 7 9 10 10 9 8 10 11 9 9 8 7 8 8 8 7 6 5 5 4 3 3 2
6 7 7 7 6 6 6 7 6 6 7 7 8 8 9 9 10 10 8 5 6 7 8 9 11 10 9 8 8 9 10 8 7 6 6 6 6 6 7 6 5 5 3
6 6 7 7 7 7 6 6 7 6 7 8 9 8 8 9 10 9 8 5 6 7 7 7 7 11 10 10 9 9 11 9 8 8 7 7 6 5 5 5 4 5 5
6 6 7 7 7 7 6 6 7 7 7 7 7 8 7 8 9 9 11 10 9 7 7 7 7 10 11 12 10 11 12 10 6 7 6 7 7 7 6 6 6 4 4
6 6 7 7 7 6 6 7 7 6 6 6 6 7 8 7 8 10 10 10 12 9 9 12 12 12 11 10 13 14 10 8 7 8 8 8 7 8 7 6 5 5 4
6 6 6 6 6 7 6 6 6 6 6 7 7 8 8 8 7 6 6 8 10 10 10 12 13 13 11 11 10 10 8 8 9 9 8 7 6 6 7 6 5 5 4
7 6 6 6 6 6 6 6 7 6 7 8 7 8 9 9 10 13 11 9 8 9 10 9 8 7 7 7 7 7 8 8 10 8 8 7 7 7 6 6 6 5 6
6 6 5 5 5 6 6 8 10 11 13 14 13 13 12 14 18 19 18 17 17 16 11 9 9 9 9 9 9 8 9 9 10 9 9 9 9 9 8 6 6 7 6
6 6 5 5 6 6 7 7 8 9 11 13 15 16 16 18 19 19 19 18 17 15 10 9 10 9 9 9 8 9 9 9 9 10 10 10 9 9 9 9 8 7 7
6 7 7 5 5 6 7 8 8 8 9 8 10 14 16 17 17 17 17 13 10 9 8 9 9 9 9 9 9 8 8 8 8 10 10 11 10 10 10 10 10 9 8
6 5 5 5 6 7 8 8 8 9 8 9 9 9 12 14 15 15 13 8 9 9 9 9 9 9 9 9 9 8 8 8 9 9 10 11 11 10 10 10 10 12 9
6 10 9 7 7 8 7 7 7 7 8 8 8 9 9 9 9 10 8 8 9 9 10 10 9 9 9 9 8 8 8 8 9 9 10 10 11 11 11 12 11 11 9
6 7 11 9 7 8 7 7 8 8 8 8 9 10 13 10 10 11 10 9 9 10 10 10 9 9 9 8 8 9 9 9 8 9 9 10 10 10 10 11 11 11 10
5 6 6 7 8 8 8 8 8 9 9 10 9 10 14 10 9 10 10 10 9 9 10 10 9 8 8 8 9 9 9 9 8 8 9 9 10 10 10 10 11 10 11
6 7 8 8 8 10 10 8 8 9 9 9 9 9 9 9 9 10 11 11 10 10 10 10 10 9 9 8 8 9 10 9 8 8 8 8 9 10 10 10 12 13 12
6 7 8 9 9 8 9 9 9 9 10 9 9 9 9 9 10 11 12 11 11 10 10 10 10 12 13 11 9 8 9 9 7 7 9 8 9 9 10 11 11 13 13
7 8 9 9 9 9 9 9 9 9 10 9 9 9 9 10 11 11 11 11 12 12 13 12 10 10 13 13 12 11 11 12 10 8 7 8 9 9 11 12 11 11 11
8 9 9 9 8 8 8 9 9 10 10 9 9 9 10 10 11 11 11 11 12 12 12 11 12 13 13 11 12 12 12 11 10 10 8 7 9 9 10 10 13 12 13
Wind_Direction
337 301 339 296 300 295 285 288 290 283 270 260 251 252 254 242 219 203 227 254 278 288 283 236 242 242 279 296 289 274 253 200 222 256 222 187 155 150 156 174 170 174 182
8 350 348 351 320 297 288 277 276 276 273 271 278 272 267 258 246 226 225 241 243 258 272 283 271 245 224 263 284 281 263 227 197 227 235 212 176 178 176 189 189 183 175
36 4 355 350 336 320 315 307 300 298 292 283 274 271 272 269 266 254 236 242 239 240 238 243 256 256 236 241 242 258 269 255 194 199 227 202 194 185 158 194 212 178 167
43 25 1 342 348 340 328 323 316 312 306 300 293 282 272 266 263 268 272 264 257 246 232 227 228 224 225 241 239 242 252 248 225 210 215 202 200 192 163 188 203 196 189
35 26 2 342 349 342 332 328 323 316 311 306 307 306 299 286 276 294 295 291 287 273 252 232 220 212 206 211 227 238 251 241 228 213 214 211 203 186 197 195 187 193 213
29 21 3 354 351 344 334 329 321 312 308 309 307 301 297 295 286 275 282 295 292 287 274 252 227 216 212 212 217 217 214 222 228 218 215 217 213 198 187 179 179 179 220
28 16 3 353 344 339 335 326 312 306 304 301 298 294 289 285 277 268 262 273 280 281 279 272 263 237 211 211 215 221 226 228 224 223 231 222 212 194 176 185 196 195 206
25 8 356 350 344 335 325 315 308 307 306 296 289 287 287 286 276 267 264 261 271 271 270 266 262 254 228 211 208 213 218 222 224 223 234 231 217 186 173 180 186 182 184
19 356 349 347 336 327 319 312 308 306 300 295 293 289 284 283 272 265 261 264 268 272 270 267 264 257 241 224 213 215 218 220 220 208 204 206 193 183 170 151 163 165 206
8 351 342 333 323 317 312 309 309 304 298 300 298 292 287 284 281 270 258 265 270 279 279 270 262 258 253 238 227 218 221 216 202 201 205 205 198 195 194 184 181 183 190
354 340 327 323 317 310 311 310 309 308 308 305 300 296 293 290 293 285 266 260 269 278 281 278 267 255 248 241 242 232 225 219 201 196 198 202 201 197 198 198 189 183 190
337 327 320 317 318 325 319 313 313 315 311 307 307 309 306 303 300 300 289 269 273 271 274 278 282 275 256 247 244 245 237 223 212 200 199 202 201 200 198 196 189 184 180
322 318 315 316 319 324 326 323 319 315 311 310 312 310 310 309 305 300 300 297 292 282 281 285 288 284 270 256 244 239 236 225 214 210 209 208 201 193 185 182 180 172 170
315 313 314 319 326 329 326 318 316 315 315 315 313 309 307 306 307 311 305 299 295 291 285 287 285 275 263 250 246 239 231 223 216 216 211 203 190 185 184 176 176 172 170
317 321 325 326 322 317 313 309 308 297 295 298 296 298 304 303 300 304 305 301 297 289 293 287 280 274 260 250 239 231 227 226 223 217 210 201 193 189 186 176 170 172 179
318 319 315 313 311 308 305 306 298 291 293 292 286 286 292 289 293 297 297 294 291 289 291 281 270 261 256 246 239 235 226 225 222 214 210 203 197 192 187 179 175 179 186
305 305 306 305 306 305 305 306 305 301 292 290 291 291 289 291 293 294 295 294 291 289 280 272 268 264 261 251 239 237 234 225 222 214 210 205 197 191 185 184 184 186 188
296 298 300 293 296 299 297 295 295 300 305 302 295 291 294 295 294 294 295 299 296 283 269 271 271 268 267 261 249 242 240 229 224 218 211 205 198 192 187 186 188 188 187
290 287 287 287 286 287 287 288 290 294 296 299 302 302 298 299 298 296 299 290 289 288 282 275 270 268 269 267 260 248 243 237 228 222 212 207 200 191 189 188 187 187 184
280 285 290 287 284 284 284 286 290 292 294 295 296 299 304 308 307 302 294 286 285 287 287 282 278 275 273 272 269 259 250 246 236 228 216 207 203 194 189 187 186 184 186
276 284 291 291 284 285 287 289 289 288 289 291 291 292 296 300 298 296 294 291 290 290 290 285 278 277 275 274 271 265 259 254 243 235 220 208 202 197 190 186 184 182 177
278 281 282 285 286 286 288 289 288 287 288 291 292 293 296 293 291 295 292 289 288 287 287 285 281 275 271 273 275 270 261 257 250 243 229 211 202 195 187 184 180 177 174
277 283 285 285 285 287 289 287 287 288 289 290 292 293 295 293 293 296 297 294 292 291 290 284 281 279 275 270 267 267 262 252 245 241 229 215 208 196 186 184 180 174 173
285 286 287 289 287 285 285 286 287 289 290 290 293 294 294 294 296 298 300 299 297 295 292 287 280 276 276 276 273 270 265 256 245 237 227 218 213 200 186 180 178 176 173
282 283 284 284 285 286 288 289 290 291 293 293 294 295 295 295 296 297 298 299 299 296 293 291 284 277 274 273 273 271 263 254 246 236 223 218 213 199 187 178 174 169 166
277 279 280 279 279 281 283 285 288 290 291 292 292 293 294 295 295 296 297 298 297 294 293 290 284 279 274 271 271 265 260 252 241 230 219 213 205 192 183 179 169 167 165
Height
1526 1526 1525 1525 1524 1524 1523 1523 1522 1522 1521 1520 1520 1519 1518 1517 1516 1515 1514 1513 1513 1512 1511 1510 1509 1509 1508 1508 1507 1507 1507 1508 1507 1508 1508 1508 1509 1509 1509 1510 1511 1512 1514
1525 1525 1524 1524 1523 1522 1522 1521 1521 1520 1519 1519 1518 1517 1517 1516 1515 1514 1513 1512 1511 1510 1510 1509 1508 1507 1507 1506 1506 1505 1505 1506 1506 1505 1506 1506 1507 1507 1508 1508 1509 1510 1511
1524 1523 1523 1522 1521 1521 1520 1519 1518 1518 1517 1517 1516 1515 1514 1514 1513 1512 1511 1510 1509 1508 1508 1507 1506 1505 1505 1504 1504 1503 1503 1503 1503 1503 1504 1504 1504 1505 1506 1506 1507 1508 1509
1524 1523 1522 1521 1520 1519 1518 1517 1516 1515 1515 1514 1513 1513 1512 1511 1510 1509 1509 1508 1507 1506 1505 1504 1504 1503 1502 1502 1501 1501 1501 1501 1501 1501 1501 1501 1502 1503 1503 1504 1505 1506 1506
1523 1522 1521 1520 1519 1518 1516 1515 1514 1512 1512 1511 1510 1509 1508 1508 1507 1506 1505 1504 1503 1503 1502 1501 1501 1500 1499 1499 1499 1498 1498 1498 1498 1498 1498 1499 1499 1500 1500 1501 1502 1503 1504
1522 1521 1520 1519 1517 1516 1514 1512 1511 1509 1508 1508 1507 1506 1505 1504 1503 1502 1501 1500 1499 1499 1498 1498 1497 1496 1496 1495 1495 1495 1495 1495 1495 1495 1495 1496 1496 1497 1497 1498 1499 1500 1501
1521 1520 1519 1517 1515 1514 1512 1510 1508 1507 1505 1504 1503 1502 1501 1500 1499 1498 1497 1496 1494 1494 1493 1493 1492 1492 1492 1491 1491 1491 1491 1491 1492 1492 1492 1492 1493 1493 1494 1495 1496 1497 1498
1520 1518 1517 1515 1514 1512 1509 1508 1506 1504 1502 1500 1499 1498 1496 1495 1495 1493 1492 1491 1489 1488 1488 1488 1488 1487 1487 1487 1486 1486 1486 1486 1487 1488 1488 1488 1490 1490 1491 1492 1493 1494 1495
1518 1517 1515 1513 1511 1509 1507 1505 1503 1501 1499 1497 1495 1494 1492 1490 1490 1489 1487 1485 1484 1482 1482 1482 1482 1481 1482 1482 1482 1481 1481 1481 1482 1483 1484 1484 1485 1487 1487 1488 1489 1490 1491
1516 1514 1513 1511 1509 1507 1505 1502 1500 1498 1496 1494 1491 1490 1488 1486 1485 1484 1482 1480 1478 1476 1476 1475 1475 1475 1475 1474 1475 1475 1475 1476 1477 1478 1479 1480 1481 1482 1483 1484 1485 1486 1487
1514 1512 1510 1508 1506 1504 1502 1500 1497 1495 1492 1490 1487 1485 1484 1482 1480 1479 1477 1475 1472 1471 1469 1469 1468 1468 1468 1467 1467 1467 1468 1470 1471 1472 1473 1474 1475 1476 1478 1479 1480 1482 1483
1511 1509 1507 1505 1504 1502 1499 1496 1494 1491 1488 1486 1483 1481 1479 1477 1475 1473 1471 1469 1467 1465 1463 1462 1461 1461 1460 1460 1459 1460 1461 1463 1464 1465 1466 1468 1469 1470 1472 1474 1476 1477 1478
1508 1507 1505 1503 1501 1499 1496 1493 1491 1488 1485 1482 1479 1476 1473 1471 1470 1467 1465 1463 1461 1458 1456 1455 1454 1453 1452 1452 1451 1452 1453 1455 1456 1457 1458 1460 1462 1464 1467 1468 1470 1472 1473
1505 1504 1502 1500 1497 1495 1493 1490 1487 1484 1481 1479 1475 1472 1469 1466 1464 1461 1459 1456 1454 1451 1448 1446 1445 1444 1443 1443 1443 1443 1444 1445 1447 1449 1451 1454 1456 1458 1460 1462 1464 1465 1467
1502 1500 1498 1496 1493 1491 1488 1486 1483 1481 1479 1475 1472 1468 1464 1460 1458 1456 1453 1450 1447 1444 1441 1438 1436 1434 1434 1433 1434 1434 1435 1437 1438 1440 1443 1446 1448 1451 1453 1455 1457 1459 1461
1498 1497 1494 1492 1489 1487 1484 1481 1478 1477 1473 1470 1467 1464 1459 1456 1452 1449 1446 1443 1440 1437 1434 1430 1428 1427 1425 1425 1425 1425 1426 1427 1429 1431 1433 1437 1440 1442 1445 1448 1450 1452 1454
1495 1493 1490 1488 1485 1482 1479 1476 1472 1469 1467 1464 1461 1457 1454 1450 1446 1442 1438 1435 1432 1430 1426 1423 1420 1419 1418 1417 1418 1417 1417 1418 1420 1422 1424 1427 1430 1434 1437 1440 1442 1445 1448
1490 1488 1486 1483 1480 1477 1474 1471 1468 1464 1460 1456 1454 1451 1447 1443 1439 1435 1432 1427 1423 1421 1419 1416 1413 1411 1410 1409 1409 1409 1410 1410 1412 1413 1415 1418 1421 1425 1428 1431 1434 1437 1440
1485 1483 1480 1478 1475 1472 1469 1466 1463 1459 1455 1451 1447 1444 1441 1437 1433 1429 1425 1421 1417 1414 1411 1408 1406 1404 1403 1401 1401 1401 1401 1401 1402 1404 1406 1408 1412 1415 1418 1422 1426 1430 1434
1479 1477 1475 1472 1469 1466 1463 1460 1457 1453 1449 1445 1442 1438 1434 1430 1425 1421 1418 1415 1411 1407 1404 1401 1398 1396 1394 1393 1392 1392 1392 1392 1393 1395 1397 1399 1402 1406 1410 1413 1417 1422 1426
1473 1471 1469 1466 1463 1460 1457 1454 1451 1447 1443 1439 1436 1432 1429 1424 1419 1415 1411 1407 1404 1400 1396 1392 1390 1388 1386 1384 1383 1382 1383 1383 1383 1386 1388 1390 1393 1397 1401 1405 1409 1414 1419
1467 1464 1462 1460 1457 1454 1451 1448 1444 1441 1437 1433 1428 1425 1422 1418 1413 1408 1404 1400 1396 1392 1388 1384 1381 1379 1377 1375 1374 1373 1373 1373 1375 1377 1378 1381 1384 1387 1392 1396 1401 1406 1411
1461 1458 1456 1453 1450 1447 1444 1441 1437 1434 1430 1426 1422 1418 1414 1410 1406 1401 1396 1392 1387 1383 1379 1376 1372 1369 1367 1366 1365 1364 1364 1364 1366 1368 1369 1371 1375 1378 1383 1387 1392 1397 1402
1454 1452 1449 1446 1443 1440 1437 1433 1430 1426 1423 1419 1415 1411 1407 1402 1398 1393 1388 1383 1379 1374 1370 1367 1364 1360 1358 1357 1356 1355 1355 1356 1357 1359 1360 1363 1366 1369 1374 1379 1384 1389 1394
1447 1444 1442 1439 1436 1433 1429 1426 1422 1419 1415 1411 1407 1403 1399 1394 1390 1385 1380 1375 1370 1365 1361 1358 1355 1352 1349 1348 1347 1346 1346 1347 1348 1349 1352 1355 1358 1362 1366 1371 1377 1382 1387
1439 1436 1434 1431 1428 1425 1422 1418 1415 1411 1407 1404 1400 1395 1391 1386 1381 1376 1371 1366 1361 1357 1352 1349 1345 1343 1340 1339 1338 1337 1337 1338 1339 1341 1344 1347 1351 1354 1359 1364 1369 1375 1380